Weather History for Cairo, IL

Change the Weather History Date:

Friday, November 22, 2013

  Actual Average Record
Temperature  
Mean Temperature 50 °F -  
Max Temperature 58 °F 54 °F 72 °F (1990)
Min Temperature 41 °F 38 °F 19 °F (2008)
Degree Days  
Heating Degree Days 16    
Moisture  
Dew Point 45 °F    
Average Humidity 85    
Maximum Humidity 94    
Minimum Humidity 78    
Precipitation  
Precipitation 0.00 in - - ()
Sea Level Pressure  
Sea Level Pressure 30.34 in    
Wind  
Wind Speed 8 mph (North)    
Max Wind Speed 20 mph    
Max Gust Speed 26 mph    
Visibility 8 miles    
Events Rain    
Averages and records for this station are not official NWS values.
T = Trace of Precipitation, MM = Missing Value Source: NWS Daily Summary

Daily Weather History Graph

Daily Weather History Graph

Search for Another Location

Airport:

Trip Planner

Search our weather history database for the weather conditions in past years. The results will help you decide how hot, cold, wet, or windy it might be!

Date:

Astronomy

Nov. 22, 2013 Rise Set
Actual Time 6:43 AM CST 4:42 PM CST
Civil Twilight 6:14 AM CST 5:10 PM CST
Nautical Twilight 5:43 AM CST 5:42 PM CST
Astronomical Twilight 5:12 AM CST 6:13 PM CST
Moon 9:13 PM CST 10:27 AM CST
Length of Visible Light 10h 56m
Length of Day
9h 59m
Waning Gibbous, 78% of the Moon is Illuminated
Nov 22
Waning Gibbous
Nov 25
Last Quarter
Dec 2
New
Dec 9
First Quarter
Dec 17
Full

Hourly Weather History & Observations

Time (CST) Temp. Windchill Dew Point Humidity Pressure Visibility Wind Dir Wind Speed Gust Speed Precip Events Conditions
12:15 AM 58.1 °F - 55.4 °F 91% 30.18 in 1.2 mi Calm Calm - N/A Rain Rain
12:35 AM 58.1 °F - 55.6 °F 91% 30.18 in 1.0 mi Calm Calm - N/A Rain Light Rain
12:55 AM 58.1 °F - 55.4 °F 91% 30.18 in 0.8 mi Calm Calm - N/A Rain Rain
1:15 AM 57.6 °F - 55.2 °F 92% 30.19 in 0.8 mi Calm Calm - N/A Rain Light Rain
1:35 AM 57.7 °F - 55.6 °F 92% 30.19 in 1.0 mi WNW 3.5 mph - N/A Rain Rain
1:55 AM 57.4 °F - 55.4 °F 93% 30.20 in 1.2 mi WNW 4.6 mph - N/A   Drizzle
2:15 AM 57.4 °F - 55.4 °F 93% 30.20 in 1.5 mi Calm Calm - N/A   Drizzle
2:35 AM 57.2 °F - 55.4 °F 94% 30.20 in 1.5 mi Calm Calm - N/A   Drizzle
2:55 AM 57.2 °F - 55.4 °F 94% 30.20 in 1.5 mi Calm Calm - N/A   Light Drizzle
3:15 AM 57.2 °F - 55.4 °F 94% 30.20 in 1.8 mi WNW 5.8 mph - N/A   Light Drizzle
3:35 AM 57.2 °F - 55.4 °F 94% 30.20 in 3.0 mi NW 4.6 mph - N/A   Overcast
3:55 AM 56.8 °F - 55.0 °F 94% 30.20 in 2.5 mi NNW 8.1 mph - N/A   Overcast
4:15 AM 56.5 °F - 54.7 °F 94% 30.21 in 7.0 mi NNW 9.2 mph - N/A   Overcast
4:35 AM 55.9 °F - 54.1 °F 94% 30.22 in 10.0 mi NNW 5.8 mph - N/A   Overcast
4:55 AM 55.9 °F - 54.1 °F 94% 30.22 in 10.0 mi NNW 4.6 mph - N/A   Overcast
5:15 AM 55.9 °F - 54.0 °F 93% 30.22 in 10.0 mi North 5.8 mph - N/A   Drizzle
5:35 AM 55.9 °F - 54.0 °F 93% 30.22 in 10.0 mi North 4.6 mph - N/A   Drizzle
5:55 AM 55.8 °F - 53.8 °F 93% 30.23 in 10.0 mi North 5.8 mph - N/A   Overcast
6:15 AM 55.6 °F - 53.6 °F 93% 30.25 in 10.0 mi North 6.9 mph - N/A   Overcast
6:35 AM 55.4 °F - 53.2 °F 92% 30.25 in 10.0 mi North 10.4 mph - N/A   Overcast
6:55 AM 55.4 °F - 52.9 °F 91% 30.26 in 7.0 mi North 8.1 mph - N/A   Overcast
7:15 AM 55.4 °F - 52.9 °F 91% 30.28 in 10.0 mi North 12.7 mph - N/A   Overcast
7:35 AM 55.0 °F - 52.7 °F 92% 30.28 in 10.0 mi North 10.4 mph - N/A   Overcast
7:55 AM 54.5 °F - 51.4 °F 89% 30.29 in 10.0 mi North 12.7 mph 19.6 mph N/A   Overcast
8:15 AM 53.6 °F - 50.4 °F 89% 30.31 in 7.0 mi North 12.7 mph - N/A   Overcast
8:35 AM 53.1 °F - 50.0 °F 89% 30.32 in 5.0 mi North 18.4 mph 21.9 mph N/A   Overcast
8:55 AM 52.7 °F - 49.3 °F 88% 30.33 in 5.0 mi North 10.4 mph - N/A   Overcast
9:15 AM 51.6 °F - 48.4 °F 89% 30.33 in 4.0 mi NNW 10.4 mph - N/A   Overcast
9:35 AM 50.7 °F - 47.3 °F 88% 30.34 in 4.0 mi NNW 17.3 mph - N/A   Overcast
9:55 AM 50.5 °F - 47.1 °F 88% 30.36 in 10.0 mi NNW 15.0 mph - N/A   Overcast
10:15 AM 49.6 °F - 45.9 °F 87% 30.36 in 10.0 mi NNW 17.3 mph 20.7 mph N/A   Overcast
10:35 AM 49.3 °F - 45.3 °F 86% 30.37 in 7.0 mi NNW 16.1 mph - N/A   Overcast
10:55 AM 49.3 °F - 44.8 °F 84% 30.36 in 7.0 mi North 12.7 mph - N/A   Overcast
11:15 AM 49.5 °F - 44.8 °F 84% 30.36 in 7.0 mi North 13.8 mph 17.3 mph N/A   Overcast
11:35 AM 48.4 °F - 43.7 °F 84% 30.37 in 7.0 mi North 11.5 mph 19.6 mph N/A   Overcast
11:55 AM 47.5 °F - 42.8 °F 84% 30.37 in 7.0 mi NNW 13.8 mph - N/A   Overcast
12:15 PM 47.3 °F - 42.3 °F 83% 30.38 in 7.0 mi NNW 15.0 mph 18.4 mph N/A   Overcast
12:35 PM 46.4 °F 40.7 °F 41.5 °F 83% 30.38 in 10.0 mi NNW 12.7 mph - N/A   Overcast
12:55 PM 46.6 °F - 41.5 °F 83% 30.37 in 10.0 mi NNW 15.0 mph - N/A   Overcast
1:15 PM 47.3 °F - 41.9 °F 82% 30.37 in 10.0 mi NNW 13.8 mph - N/A   Overcast
1:35 PM 47.5 °F - 41.5 °F 80% 30.36 in 10.0 mi North 12.7 mph 19.6 mph N/A   Overcast
1:55 PM 47.3 °F - 41.0 °F 79% 30.36 in 10.0 mi North 10.4 mph 17.3 mph N/A   Overcast
2:15 PM 47.1 °F - 41.0 °F 79% 30.36 in 10.0 mi North 15.0 mph 21.9 mph N/A   Overcast
2:35 PM 45.9 °F 40.0 °F 39.9 °F 80% 30.37 in 10.0 mi North 12.7 mph - N/A   Overcast
2:55 PM 45.7 °F 40.2 °F 39.9 °F 80% 30.38 in 10.0 mi North 11.5 mph - N/A   Overcast
3:15 PM 45.5 °F 39.9 °F 39.4 °F 79% 30.38 in 10.0 mi North 11.5 mph 17.3 mph N/A   Overcast
3:35 PM 45.0 °F 38.9 °F 39.2 °F 80% 30.38 in 10.0 mi North 12.7 mph - N/A   Overcast
3:55 PM 45.0 °F 39.7 °F 39.2 °F 80% 30.40 in 10.0 mi North 10.4 mph - N/A   Overcast
4:15 PM 44.6 °F 38.4 °F 38.8 °F 80% 30.41 in 10.0 mi North 12.7 mph 18.4 mph N/A   Overcast
4:35 PM 44.6 °F 39.7 °F 38.5 °F 79% 30.42 in 10.0 mi North 9.2 mph 24.2 mph N/A   Overcast
4:55 PM 44.6 °F 38.1 °F 38.5 °F 79% 30.42 in 10.0 mi North 13.8 mph - N/A   Overcast
5:15 PM 44.2 °F 37.3 °F 38.3 °F 80% 30.42 in 10.0 mi North 15.0 mph 20.7 mph N/A   Overcast
5:35 PM 44.2 °F 37.6 °F 38.3 °F 80% 30.42 in 10.0 mi North 13.8 mph 21.9 mph N/A   Overcast
5:55 PM 44.2 °F 36.7 °F 37.9 °F 79% 30.42 in 10.0 mi North 17.3 mph 24.2 mph N/A   Overcast
6:15 PM 44.2 °F 36.7 °F 37.8 °F 78% 30.43 in 10.0 mi North 17.3 mph 21.9 mph N/A   Overcast
6:35 PM 44.1 °F 35.9 °F 37.6 °F 78% 30.43 in 10.0 mi North 19.6 mph 23.0 mph N/A   Overcast
6:55 PM 43.9 °F 37.5 °F 37.6 °F 78% 30.44 in 10.0 mi North 12.7 mph 17.3 mph N/A   Overcast
7:15 PM 43.7 °F 35.4 °F 37.4 °F 78% 30.44 in 10.0 mi North 19.6 mph 26.5 mph N/A   Overcast
7:35 PM 43.2 °F 36.2 °F 36.9 °F 78% 30.44 in 10.0 mi North 13.8 mph 24.2 mph N/A   Overcast
7:55 PM 42.8 °F 35.8 °F 36.7 °F 79% 30.45 in 10.0 mi North 13.8 mph 20.7 mph N/A   Overcast
8:15 PM 42.8 °F 37.0 °F 36.7 °F 79% 30.44 in 10.0 mi North 10.4 mph 17.3 mph N/A   Overcast
8:35 PM 42.8 °F 36.6 °F 36.5 °F 78% 30.44 in 10.0 mi North 11.5 mph - N/A   Overcast
8:55 PM 42.8 °F 36.6 °F 36.9 °F 80% 30.45 in 10.0 mi North 11.5 mph - N/A   Overcast
9:15 PM 42.4 °F 35.7 °F 36.5 °F 79% 30.46 in 10.0 mi North 12.7 mph - N/A   Overcast
9:35 PM 42.3 °F 36.3 °F 36.5 °F 80% 30.44 in 10.0 mi North 10.4 mph 18.4 mph N/A   Overcast
9:55 PM 42.3 °F 36.8 °F 36.5 °F 80% 30.45 in 10.0 mi North 9.2 mph - N/A   Overcast
10:15 PM 42.1 °F 36.1 °F 36.5 °F 81% 30.43 in 10.0 mi North 10.4 mph - N/A   Overcast
10:35 PM 42.3 °F 35.9 °F 36.5 °F 80% 30.44 in 10.0 mi North 11.5 mph 16.1 mph N/A   Overcast
10:55 PM 42.3 °F 35.9 °F 36.5 °F 80% 30.44 in 10.0 mi North 11.5 mph 16.1 mph N/A   Overcast
11:15 PM 42.1 °F 36.1 °F 36.1 °F 79% 30.45 in 10.0 mi North 10.4 mph 17.3 mph N/A   Overcast
11:35 PM 41.9 °F 36.3 °F 36.0 °F 79% 30.45 in 10.0 mi North 9.2 mph - N/A   Overcast
11:55 PM 41.9 °F 35.9 °F 36.0 °F 79% 30.45 in 10.0 mi North 10.4 mph - N/A   Overcast